Location: Newark
(42.7133°N, 87.7910°W)
Time: 12:19:45
(UTC+00:00)

Tiros 1 - Pass Details

Date: 20 September 2019
Orbit: 630 x 664 km, 48.4° (Epoch: 15 October)

Event Time Altitude Azimuth Distance (km) Brightness Sun altitude
Rises 18:58:17 0° 238° (WSW) 2,966 11.1 45.1°
Reaches altitude 10° 19:00:38 10° 238° (WSW) 2,051 10.6 44.9°
Maximum altitude 19:05:22 81° 152° (SSE) 659 8.2 44.5°
Drops below altitude 10° 19:10:04 10° 65° (ENE) 2,036 9.5 44.1°
Sets 19:12:23 0° 64° (ENE) 2,942 10.2 43.9°
